This is the latest recevied weather packets stored in our database for station/object VE6HFD-WX. If no packets are shown the sender has not sent any weather packets the latest 10 day(s).
| Time | Temp. | Humidity | Pressure | Rain* | Wind** | Luminosity | Snow |
|---|---|---|---|---|---|---|---|
| 1778051767 | -1.67° C | 64% | 1019.4 hPa | 0 mm | - | - | - |
| 1778051437 | -1.11° C | 64% | 1019.5 hPa | 0 mm | - | - | - |
| 1778051137 | -1.11° C | 65% | 1019.5 hPa | 0 mm | - | - | - |
| 1778050807 | -1.11° C | 66% | 1019.6 hPa | 0 mm | - | - | - |
| 1778050507 | -1.11° C | 66% | 1019.6 hPa | 0 mm | - | - | - |
| 1778050178 | -1.11° C | 65% | 1019.7 hPa | 0 mm | - | - | - |
| 1778049877 | -0.56° C | 63% | 1019.7 hPa | 0 mm | - | - | - |
| 1778049547 | -0.56° C | 62% | 1019.8 hPa | 0 mm | - | - | - |
| 1778049248 | -1.11° C | 62% | 1019.8 hPa | 0 mm | - | - | - |
| 1778048918 | -1.11° C | 62% | 1019.8 hPa | 0 mm | - | - | - |
| 1778048618 | -0.56° C | 63% | 1019.8 hPa | 0 mm | - | - | - |
| 1778048317 | -0.56° C | 63% | 1019.8 hPa | 0 mm | - | - | - |
| 1778047988 | -1.11° C | 64% | 1019.7 hPa | 0 mm | - | - | - |
| 1778047688 | -1.11° C | 62% | 1019.7 hPa | 0 mm | - | - | - |
| 1778047358 | -1.11° C | 64% | 1019.7 hPa | 0 mm | - | - | - |
| 1778047028 | -1.11° C | 63% | 1019.7 hPa | 0 mm | - | - | - |
| 1778046698 | -1.11° C | 63% | 1019.7 hPa | 0 mm | - | - | - |
| 1778046368 | -1.11° C | 61% | 1019.7 hPa | 0 mm | - | - | - |
| 1778046038 | 0° C | 57% | 1019.7 hPa | 0 mm | - | - | - |
| 1778045738 | 1.11° C | 55% | 1019.8 hPa | 0 mm | - | - | - |
| 1778045438 | 1.67° C | 53% | 1019.9 hPa | 0 mm | - | - | - |
| 1778045108 | 1.67° C | 54% | 1020 hPa | 0 mm | - | - | - |
| 1778044778 | 1.11° C | 56% | 1020 hPa | 0 mm | - | - | - |
| 1778044448 | 0.56° C | 57% | 1020.1 hPa | 0 mm | - | - | - |
| 1778044118 | 0.56° C | 56% | 1020.2 hPa | 0 mm | - | - | - |
* Rain latest hour (hover to see other rain measurements)
** Current wind speed in m/s (hover to see current wind gust speed)